TimeMST,TemperatureF,Dew PointF,Humidity,Sea Level PressureIn,VisibilityMPH,Wind Direction,Wind SpeedMPH,Gust SpeedMPH,PrecipitationIn,Events,Conditions,WindDirDegrees,DateUTC
12:53 AM,32.0,15.1,50,29.95,10.0,South,8.1,-,N/A,,Clear,180,2012-11-25 07:53:00
1:53 AM,32.0,16.0,52,29.93,10.0,WSW,12.7,-,N/A,,Clear,240,2012-11-25 08:53:00
2:53 AM,30.9,16.0,54,29.92,10.0,SW,16.1,-,N/A,,Clear,230,2012-11-25 09:53:00
3:53 AM,30.9,16.0,54,29.90,10.0,SW,13.8,-,N/A,,Clear,230,2012-11-25 10:53:00
5:53 AM,32.0,15.1,50,29.94,10.0,WSW,12.7,-,N/A,,Clear,250,2012-11-25 12:53:00
6:53 AM,32.0,15.1,50,29.97,10.0,WSW,11.5,-,N/A,,Clear,240,2012-11-25 13:53:00
7:53 AM,30.9,15.1,52,29.98,10.0,WSW,12.7,-,N/A,,Clear,240,2012-11-25 14:53:00
8:53 AM,39.0,17.1,41,29.96,10.0,WSW,11.5,-,N/A,,Clear,240,2012-11-25 15:53:00
9:53 AM,43.0,17.1,35,29.95,10.0,WSW,16.1,-,N/A,,Partly Cloudy,250,2012-11-25 16:53:00
10:53 AM,42.1,16.0,35,29.95,10.0,West,16.1,-,N/A,,Mostly Cloudy,260,2012-11-25 17:53:00
11:53 AM,41.0,18.0,40,29.97,10.0,West,24.2,29.9,N/A,,Overcast,270,2012-11-25 18:53:00
12:53 PM,39.0,21.9,50,29.98,10.0,WSW,23.0,35.7,N/A,,Overcast,250,2012-11-25 19:53:00
1:53 PM,41.0,21.0,45,29.97,10.0,WSW,10.4,-,N/A,,Overcast,250,2012-11-25 20:53:00
2:53 PM,41.0,24.1,51,29.98,10.0,WSW,17.3,23.0,N/A,,Partly Cloudy,250,2012-11-25 21:53:00
3:53 PM,39.0,25.0,57,29.99,10.0,West,11.5,-,N/A,,Mostly Cloudy,260,2012-11-25 22:53:00
4:53 PM,37.0,25.0,62,30.02,10.0,East,3.5,-,N/A,,Mostly Cloudy,90,2012-11-25 23:53:00
5:53 PM,33.1,24.1,70,30.03,10.0,West,5.8,-,N/A,,Clear,260,2012-11-26 00:53:00
6:53 PM,32.0,25.0,75,30.05,10.0,West,10.4,-,N/A,,Clear,280,2012-11-26 01:53:00
7:53 PM,28.9,24.1,82,30.09,10.0,West,10.4,-,N/A,,Clear,260,2012-11-26 02:53:00
8:53 PM,30.0,24.1,79,30.05,10.0,West,8.1,-,N/A,,Clear,270,2012-11-26 03:53:00
9:53 PM,28.9,23.0,78,30.06,10.0,South,4.6,-,N/A,,Clear,190,2012-11-26 04:53:00
10:53 PM,27.0,21.9,81,30.08,10.0,SW,6.9,-,N/A,,Clear,230,2012-11-26 05:53:00
11:53 PM,28.9,23.0,78,30.09,10.0,WSW,3.5,-,N/A,,Clear,250,2012-11-26 06:53:00